DateTimeUTC,F1_A11,F1_S11,BsB_S11,BsG_S11,BsR_S11,BbsB_S11,BbsG_S11,BbsR_S11,BaB_A11,BaG_A11,BaR_A11,Tu_S11,T_S11,Uu_S11,U_S11,P_S11,T1_A11
2021-01-31T07:00:00Z,00000200,21000000,,,,,,,0000.19,0000.01,0000.59,16.2,23.5,,00.0,0632.9,30.9
2021-01-31T07:01:00Z,00000200,21000000,,,,,,,0000.02,-000.53,-000.44,16.2,23.5,,00.0,0632.9,30.9
2021-01-31T07:02:00Z,00000200,21000000,,,,,,,0000.13,0000.27,-000.06,16.2,23.5,,00.0,0632.9,30.9
2021-01-31T07:03:00Z,00000200,61000000,,,,,,,-000.33,0000.11,0000.30,16.2,23.5,,00.0,0632.9,30.9
2021-01-31T07:04:00Z,00000200,41000000,-000.02,-000.09,0000.01,0000.67,-000.09,0000.27,0000.11,-000.18,-000.09,16.5,23.3,,00.0,0633.7,30.9
2021-01-31T07:05:00Z,00000200,01000000,0000.13,-000.16,-000.01,0000.40,-000.02,-000.03,-000.30,-000.20,-000.07,16.5,23.3,,00.0,0633.8,30.9
2021-01-31T07:06:00Z,00000200,01000000,-000.02,0000.04,0000.11,0000.52,-000.19,-000.11,0000.17,0000.05,-000.16,16.5,23.3,,00.0,0633.8,30.9
2021-01-31T07:07:00Z,00000200,01000000,0000.27,0000.20,-000.32,0000.25,0000.15,-000.06,0000.12,0000.23,0000.14,16.5,23.2,,00.0,0633.8,30.9
2021-01-31T07:08:00Z,00000200,01000000,-000.19,-000.07,0000.00,0000.15,-000.04,-000.09,-000.12,-000.18,-000.19,16.5,23.3,,00.0,0633.8,30.9
2021-01-31T07:09:00Z,00000200,01000000,0000.86,0000.01,0000.10,0000.33,0000.13,0000.01,-000.06,-000.12,0000.26,16.5,23.2,,00.0,0633.8,30.9
2021-01-31T07:10:00Z,00000200,01000000,-000.33,0000.27,-000.02,0000.21,0000.07,0000.01,-000.19,0000.20,-000.50,16.5,23.2,,00.0,0633.8,30.9
2021-01-31T07:11:00Z,00000200,01000000,-000.76,0000.07,0000.24,-000.06,0000.02,0000.00,-000.19,-000.39,-000.03,16.4,23.2,,00.0,0633.8,30.9
2021-01-31T07:12:00Z,00000200,01000000,0000.16,0000.02,0000.21,0000.36,0000.06,0000.11,-000.11,0000.16,0000.15,16.4,23.2,,00.0,0633.8,30.9
2021-01-31T07:13:00Z,00000200,01000000,0000.10,-000.13,0000.03,-000.13,-000.06,-000.21,-000.00,-000.47,-000.16,16.4,23.2,,00.0,0633.8,30.9
2021-01-31T07:14:00Z,00000200,01000000,-000.09,0000.13,-000.05,-000.20,0000.15,-000.07,-000.07,0000.10,-000.36,16.4,23.1,,00.0,0633.8,30.9
2021-01-31T07:15:00Z,00000200,01000000,-000.08,0000.53,0000.14,0000.55,0000.21,0000.06,-000.14,0000.03,0000.46,16.4,23.1,,00.0,0633.8,30.9
2021-01-31T07:16:00Z,00000200,01000000,0000.26,0000.06,-000.05,0000.27,-000.00,-000.08,0000.03,-000.32,0000.16,16.4,23.1,,00.0,0633.7,30.9
2021-01-31T07:17:00Z,00000200,01000000,-000.19,0000.00,0000.14,0000.06,-000.02,-000.04,0000.51,0000.60,0000.06,16.4,23.1,,00.0,0633.7,30.9
2021-01-31T07:18:00Z,00000200,01000000,-000.09,0000.07,0000.04,0000.86,0000.01,0000.05,0000.06,0000.25,0000.24,16.5,23.1,,00.0,0633.7,30.9
2021-01-31T07:19:00Z,00000200,01000000,-000.22,-000.18,0000.05,0000.52,-000.09,-000.02,-000.06,-000.31,-000.34,16.6,23.2,,00.0,0633.7,30.9
2021-01-31T07:20:00Z,00000200,01000000,0000.15,0000.09,-000.05,-000.23,0000.18,0000.00,0000.13,0000.48,0000.11,16.7,23.2,,00.0,0633.8,31.0
2021-01-31T07:21:00Z,00000200,01000000,0000.57,0000.07,0000.19,0000.84,0000.04,-000.28,-000.32,-000.79,-000.22,16.7,23.3,,00.0,0633.8,31.0
2021-01-31T07:22:00Z,00000200,01000000,0000.24,-000.06,-000.09,0000.53,-000.02,-000.25,-000.02,0000.47,0000.17,16.8,23.3,,00.0,0633.7,31.0
2021-01-31T07:23:00Z,00000200,01000000,0000.79,-000.22,-000.23,0000.16,0000.11,-000.02,-000.20,0000.23,-000.06,16.8,23.3,,00.0,0633.7,31.0
2021-01-31T07:24:00Z,00000200,01000000,-000.44,-000.00,-000.12,0000.23,0000.11,-000.15,0000.25,-000.17,-000.17,16.8,23.3,,00.0,0633.7,31.0
2021-01-31T07:25:00Z,00000200,01000000,0000.64,0000.00,-000.26,0000.46,0000.09,0000.16,0000.14,-000.02,0000.24,16.8,23.3,,00.0,0633.7,31.0
2021-01-31T07:26:00Z,00000200,01000000,0001.09,0000.08,0000.18,0000.24,0000.34,0000.11,-000.50,-000.11,0000.02,16.7,23.3,,00.0,0633.7,30.9
2021-01-31T07:27:00Z,00000200,01000000,0000.30,0000.32,-000.05,0000.21,0000.05,0000.09,0000.37,0000.14,-000.34,16.7,23.3,,00.0,0633.7,31.0
2021-01-31T07:28:00Z,00000200,01000000,0000.12,-000.18,-000.10,0000.75,0000.22,0000.05,0000.15,0000.10,0000.31,16.7,23.3,,00.0,0633.7,31.0
2021-01-31T07:29:00Z,00000200,01000000,-000.91,0000.07,-000.05,0000.47,0000.21,-000.15,-000.13,-000.09,0000.30,16.7,23.3,,00.0,0633.7,30.9
2021-01-31T07:30:00Z,00000200,01000000,0000.37,0000.17,0000.21,0000.10,0000.38,-000.17,-000.11,-000.12,-000.13,16.6,23.2,,00.0,0633.7,30.9
2021-01-31T07:31:00Z,00000200,01000000,0000.64,0000.25,0000.14,0000.60,-000.06,0000.13,0000.16,-000.15,-000.15,16.6,23.2,,00.0,0633.7,30.9
2021-01-31T07:32:00Z,00000200,01000000,0000.07,0000.02,0000.10,0000.49,0000.19,-000.03,0000.33,0000.12,0000.42,16.6,23.2,,00.0,0633.7,30.9
2021-01-31T07:33:00Z,00000200,01000000,0000.25,0000.27,-000.19,0000.57,0000.11,0000.05,0000.32,0000.61,0000.35,16.7,23.2,,00.0,0633.7,30.9
2021-01-31T07:34:00Z,00000200,01000000,0000.63,0000.21,-000.01,-000.38,-000.13,-000.09,-000.22,0000.18,-000.05,16.8,23.3,,00.0,0633.7,31.0
2021-01-31T07:35:00Z,00000200,01000000,0000.15,0000.11,0000.03,0000.40,-000.23,0000.01,0000.17,0000.15,0000.03,16.9,23.3,,00.0,0633.7,31.0
2021-01-31T07:36:00Z,00000200,01000000,0000.20,0000.08,0000.06,0000.34,0000.15,-000.06,0000.06,-000.50,0000.06,17.0,23.4,,00.0,0633.7,31.0
2021-01-31T07:37:00Z,00000200,01000000,-000.01,-000.01,0000.03,0000.32,-000.23,-000.07,-000.45,0000.27,-000.36,17.0,23.4,,00.0,0633.7,31.0
2021-01-31T07:38:00Z,00000200,01000000,0000.10,0000.24,0000.07,0000.29,-000.01,-000.07,0000.40,0000.22,0000.41,17.1,23.5,,00.0,0633.7,31.0
2021-01-31T07:39:00Z,00000200,01000000,0000.13,0000.06,0000.04,-000.08,0000.02,0000.05,-000.41,-000.34,-000.54,17.1,23.5,,00.0,0633.7,31.0
2021-01-31T07:40:00Z,00000200,01000000,0000.23,-000.02,0000.00,0000.59,0000.19,-000.04,-000.06,0000.16,0000.24,17.0,23.5,,00.0,0633.7,31.0
2021-01-31T07:41:00Z,00000200,01000000,0000.79,0000.20,0000.06,-000.01,-000.15,0000.07,0000.31,-000.38,0000.30,17.0,23.4,,00.0,0633.7,31.0
2021-01-31T07:42:00Z,00000200,01000000,0000.15,0000.20,-000.02,0000.14,0000.08,-000.22,-000.17,-000.13,-000.46,17.0,23.4,,00.0,0633.7,31.0
2021-01-31T07:43:00Z,00000200,01000000,-000.09,-000.06,0000.11,-000.27,0000.20,-000.15,0000.00,0000.28,-000.26,16.9,23.4,,00.0,0633.7,31.0
2021-01-31T07:44:00Z,00000200,01000000,-000.02,0000.23,-000.02,0000.41,-000.01,-000.11,-000.08,-000.24,0000.15,16.9,23.4,,00.0,0633.7,31.0
2021-01-31T07:45:00Z,00000200,01000000,0000.27,0000.15,0000.25,0000.44,0000.03,0000.12,-000.04,0000.35,-000.09,16.9,23.4,,00.0,0633.7,31.0
2021-01-31T07:46:00Z,00000200,01000000,-000.09,0000.08,0000.03,0000.37,0000.07,0000.14,0000.01,-000.08,-000.08,16.8,23.4,,00.0,0633.7,31.0
2021-01-31T07:47:00Z,00000200,01000000,-000.27,0000.08,0000.23,0000.91,-000.07,0000.37,0000.11,0000.10,0000.15,16.8,23.4,,00.0,0633.7,31.0
2021-01-31T07:48:00Z,00000200,01000000,0000.32,0000.06,-000.00,0000.25,0000.10,-000.02,-000.04,0000.48,0000.38,16.9,23.4,,00.0,0633.7,31.0
2021-01-31T07:49:00Z,00000200,01000000,0000.38,-000.06,-000.07,0000.88,-000.16,0000.10,0000.12,-000.55,-000.06,16.9,23.4,,00.0,0633.7,31.0
2021-01-31T07:50:00Z,00000200,01000000,-000.25,0000.48,-000.08,0000.04,0000.03,0000.20,-000.04,0000.05,-000.23,16.9,23.4,,00.0,0633.7,31.0
2021-01-31T07:51:00Z,00000200,01000000,-000.21,-000.10,0000.32,0000.10,0000.27,0000.01,0000.17,0000.22,0000.23,16.9,23.4,,00.0,0633.7,31.0
2021-01-31T07:52:00Z,00000200,01000000,0000.44,0000.23,0000.02,0000.30,0000.36,-000.11,-000.34,-000.00,-000.16,16.8,23.4,,00.0,0633.7,30.9
2021-01-31T07:53:00Z,00000200,01000000,-000.39,0000.10,-000.24,0000.28,0000.05,-000.26,0000.12,-000.12,-000.06,16.8,23.4,,00.0,0633.7,30.9
2021-01-31T07:54:00Z,00000200,01000000,0000.48,0000.22,0000.15,0000.13,0000.07,-000.10,-000.29,-000.47,-000.27,16.8,23.4,,00.0,0633.7,30.9
2021-01-31T07:55:00Z,00000200,01000000,-000.15,0000.34,0000.29,0000.57,0000.04,-000.18,-000.19,-000.06,0000.21,16.8,23.4,,00.0,0633.7,30.9
2021-01-31T07:56:00Z,00000200,01000000,0000.43,0000.33,-000.05,0000.43,-000.11,-000.13,0000.14,0000.10,0000.46,16.7,23.3,,00.0,0633.7,30.9
2021-01-31T07:57:00Z,00000200,41000000,,,,,,,0000.40,0000.41,-000.24,16.7,23.4,,00.0,0633.7,30.9
2021-01-31T07:58:00Z,00000200,61000000,,,,,,,-000.41,-000.17,-000.17,16.3,23.4,,00.0,0632.8,30.9
2021-01-31T07:59:00Z,00000200,21000000,,,,,,,0000.07,-000.35,0000.07,16.3,23.5,,00.0,0632.8,30.9
